TimeCDT,TemperatureF,Dew PointF,Humidity,Sea Level PressureIn,VisibilityMPH,Wind Direction,Wind SpeedMPH,Gust SpeedMPH,PrecipitationIn,Events,Conditions,WindDirDegrees,DateUTC
12:15 AM,32.0,28.4,87,30.07,10.0,South,4.6,-,N/A,,Clear,180,2013-10-27 05:15:00
12:35 AM,32.0,26.6,80,30.06,10.0,South,3.5,-,N/A,,Clear,180,2013-10-27 05:35:00
12:55 AM,33.8,26.6,75,30.05,10.0,South,4.6,-,N/A,,Clear,180,2013-10-27 05:55:00
1:15 AM,33.8,26.6,75,30.04,10.0,South,5.8,-,N/A,,Clear,190,2013-10-27 06:15:00
1:35 AM,33.8,26.6,75,30.04,10.0,South,4.6,-,N/A,,Clear,180,2013-10-27 06:35:00
1:55 AM,33.8,26.6,75,30.03,10.0,South,4.6,-,N/A,,Clear,180,2013-10-27 06:55:00
2:15 AM,33.8,26.6,75,30.02,10.0,South,3.5,-,N/A,,Clear,180,2013-10-27 07:15:00
2:35 AM,33.8,26.6,75,30.01,10.0,South,3.5,-,N/A,,Clear,170,2013-10-27 07:35:00
2:55 AM,33.8,26.6,75,30.00,10.0,SSE,4.6,-,N/A,,Clear,160,2013-10-27 07:55:00
3:15 AM,33.8,26.6,75,29.99,10.0,SSE,4.6,-,N/A,,Clear,150,2013-10-27 08:15:00
3:35 AM,32.0,26.6,80,29.98,10.0,ESE,4.6,-,N/A,,Clear,110,2013-10-27 08:35:00
3:55 AM,30.2,26.6,86,29.96,10.0,SE,5.8,-,N/A,,Clear,130,2013-10-27 08:55:00
4:15 AM,30.2,26.6,86,29.94,10.0,ESE,6.9,-,N/A,,Clear,120,2013-10-27 09:15:00
4:35 AM,30.2,24.8,80,29.93,10.0,SE,6.9,-,N/A,,Clear,130,2013-10-27 09:35:00
4:55 AM,30.2,24.8,80,29.92,10.0,ESE,6.9,-,N/A,,Clear,120,2013-10-27 09:55:00
5:15 AM,30.2,24.8,80,29.91,10.0,ESE,6.9,-,N/A,,Clear,110,2013-10-27 10:15:00
5:35 AM,33.8,26.6,75,29.90,10.0,ESE,8.1,-,N/A,,Clear,120,2013-10-27 10:35:00
5:55 AM,30.2,24.8,80,29.90,10.0,Calm,Calm,-,N/A,,Clear,0,2013-10-27 10:55:00
6:15 AM,30.2,26.6,86,29.89,10.0,ESE,5.8,-,N/A,,Clear,110,2013-10-27 11:15:00
6:35 AM,30.2,24.8,80,29.89,10.0,ESE,3.5,-,N/A,,Clear,120,2013-10-27 11:35:00
6:55 AM,30.2,24.8,80,29.87,10.0,ESE,5.8,-,N/A,,Clear,120,2013-10-27 11:55:00
7:15 AM,32.0,26.6,80,29.86,10.0,ESE,6.9,-,N/A,,Clear,120,2013-10-27 12:15:00
7:35 AM,33.8,26.6,75,29.85,10.0,SE,8.1,-,N/A,,Clear,130,2013-10-27 12:35:00
7:55 AM,33.8,26.6,75,29.84,10.0,ESE,6.9,-,N/A,,Clear,120,2013-10-27 12:55:00
8:15 AM,33.8,26.6,75,29.84,10.0,SE,8.1,-,N/A,,Clear,140,2013-10-27 13:15:00
8:35 AM,32.0,28.4,87,29.83,10.0,SSE,10.4,-,N/A,,Clear,150,2013-10-27 13:35:00
8:55 AM,33.8,28.4,81,29.83,10.0,SE,4.6,-,N/A,,Clear,140,2013-10-27 13:55:00
9:15 AM,37.4,30.2,75,29.83,10.0,SSE,6.9,-,N/A,,Clear,150,2013-10-27 14:15:00
9:35 AM,39.2,33.8,81,29.84,10.0,Calm,Calm,-,N/A,,Clear,0,2013-10-27 14:35:00
9:55 AM,42.8,33.8,70,29.84,10.0,Calm,Calm,-,N/A,,Clear,0,2013-10-27 14:55:00
10:15 AM,46.4,35.6,66,29.84,10.0,SW,3.5,-,N/A,,Clear,230,2013-10-27 15:15:00
10:35 AM,48.2,37.4,66,29.83,10.0,WSW,8.1,-,N/A,,Clear,250,2013-10-27 15:35:00
10:55 AM,51.8,37.4,58,29.83,10.0,WSW,5.8,-,N/A,,Clear,250,2013-10-27 15:55:00
11:15 AM,53.6,37.4,54,29.83,10.0,WSW,6.9,-,N/A,,Clear,250,2013-10-27 16:15:00
11:35 AM,55.4,35.6,47,29.83,10.0,West,5.8,-,N/A,,Clear,270,2013-10-27 16:35:00
11:55 AM,55.4,35.6,47,29.83,10.0,West,8.1,-,N/A,,Clear,270,2013-10-27 16:55:00
12:15 PM,57.2,35.6,44,29.84,10.0,West,8.1,-,N/A,,Clear,270,2013-10-27 17:15:00
12:35 PM,57.2,35.6,44,29.83,10.0,West,6.9,-,N/A,,Clear,270,2013-10-27 17:35:00
12:55 PM,57.2,37.4,48,29.83,10.0,NW,5.8,-,N/A,,Clear,320,2013-10-27 17:55:00
1:15 PM,60.8,37.4,42,29.82,10.0,West,4.6,-,N/A,,Clear,280,2013-10-27 18:15:00
1:35 PM,60.8,39.2,45,29.82,10.0,WSW,4.6,-,N/A,,Clear,250,2013-10-27 18:35:00
1:55 PM,-9999,-9999,N/A,-9999,-9999.0,North,-9999.0,-,N/A,,Unknown,0,2013-10-27 18:55:00
2:15 PM,62.6,39.2,42,29.81,10.0,West,9.2,-,N/A,,Unknown,270,2013-10-27 19:15:00
2:35 PM,64.4,39.2,40,29.80,10.0,West,6.9,-,N/A,,Clear,280,2013-10-27 19:35:00
2:55 PM,66.2,37.4,35,29.80,10.0,NW,9.2,-,N/A,,Clear,320,2013-10-27 19:55:00
3:15 PM,66.2,37.4,35,29.80,10.0,NW,10.4,-,N/A,,Clear,320,2013-10-27 20:15:00
3:35 PM,64.4,37.4,37,29.80,10.0,NW,9.2,-,N/A,,Clear,320,2013-10-27 20:35:00
3:55 PM,64.4,37.4,37,29.81,10.0,NNW,9.2,-,N/A,,Clear,340,2013-10-27 20:55:00
4:15 PM,64.4,37.4,37,29.81,10.0,NNW,9.2,-,N/A,,Clear,330,2013-10-27 21:15:00
4:35 PM,64.4,37.4,37,29.82,10.0,North,9.2,-,N/A,,Clear,350,2013-10-27 21:35:00
4:55 PM,64.4,37.4,37,29.83,10.0,NNW,8.1,-,N/A,,Clear,340,2013-10-27 21:55:00
5:15 PM,62.6,37.4,39,29.83,10.0,NNW,9.2,-,N/A,,Clear,340,2013-10-27 22:15:00
5:35 PM,62.6,37.4,39,29.85,10.0,NNW,10.4,-,N/A,,Clear,340,2013-10-27 22:35:00
5:55 PM,60.8,37.4,42,29.85,10.0,NNW,10.4,-,N/A,,Clear,340,2013-10-27 22:55:00
6:15 PM,57.2,35.6,44,29.87,10.0,North,9.2,-,N/A,,Clear,350,2013-10-27 23:15:00
6:35 PM,53.6,35.6,51,29.87,10.0,NNW,8.1,-,N/A,,Clear,340,2013-10-27 23:35:00
6:55 PM,50.0,35.6,58,29.89,10.0,NNW,8.1,-,N/A,,Clear,340,2013-10-27 23:55:00
7:15 PM,51.8,35.6,54,29.90,10.0,North,9.2,-,N/A,,Clear,360,2013-10-28 00:15:00
7:35 PM,51.8,35.6,54,29.91,10.0,North,9.2,-,N/A,,Clear,10,2013-10-28 00:35:00
7:55 PM,50.0,35.6,58,29.94,10.0,NNE,11.5,-,N/A,,Clear,20,2013-10-28 00:55:00
8:15 PM,50.0,35.6,58,29.95,10.0,NNE,13.8,-,N/A,,Clear,30,2013-10-28 01:15:00
8:35 PM,50.0,35.6,58,29.96,10.0,NNE,13.8,-,N/A,,Clear,30,2013-10-28 01:35:00
8:55 PM,48.2,33.8,58,29.98,10.0,NNE,12.7,-,N/A,,Clear,30,2013-10-28 01:55:00
9:15 PM,48.2,33.8,58,29.98,10.0,NNE,12.7,-,N/A,,Clear,20,2013-10-28 02:15:00
9:35 PM,46.4,33.8,62,30.00,10.0,NNE,15.0,-,N/A,,Clear,20,2013-10-28 02:35:00
9:55 PM,46.4,33.8,62,30.00,10.0,NNE,15.0,20.7,N/A,,Clear,20,2013-10-28 02:55:00
10:15 PM,44.6,32.0,61,30.02,10.0,NNE,13.8,-,N/A,,Clear,20,2013-10-28 03:15:00
10:35 PM,44.6,32.0,61,30.03,10.0,NNE,12.7,-,N/A,,Clear,20,2013-10-28 03:35:00
10:55 PM,42.8,30.2,61,30.03,10.0,NNE,13.8,-,N/A,,Clear,20,2013-10-28 03:55:00
11:15 PM,42.8,30.2,61,30.04,10.0,NNE,12.7,-,N/A,,Clear,20,2013-10-28 04:15:00
11:35 PM,42.8,30.2,61,30.05,10.0,North,11.5,-,N/A,,Clear,10,2013-10-28 04:35:00
11:55 PM,41.0,30.2,65,30.05,10.0,NNE,12.7,-,N/A,,Clear,20,2013-10-28 04:55:00